User: anonymous   Login
Location: Wildcat Hills Observatory
(41.6350°N, 103.6812°W)
Time: 04:58:24
(UTC-07:00)
Language:

Cosmos 1634 Rocket - Orbit

View from above orbital plane
View from above orbital plane
View from above satellite
View from above satellite

Ground track
Ground track

The orbit data is extracted from the following two-line orbital elements,

1 15598U 85022B   14352.39259924  .00000127  00000-0  11375-3 0  8004
2 15598 082.9380 064.8155 0023443 137.6364 271.7610 13.76503011495026
Epoch (UTC): 18 December 2014 09:25:20
Eccentricity: 0.0023443
inclination: 82.9380°
perigee height: 959 km
apogee height: 993 km
right ascension of ascending node: 64.8155°
argument of perigee: 137.6364°
revolutions per day: 13.76503011
mean anomaly at epoch: 271.7610°
orbit number at epoch: 49502

The dashed part of the orbit path shows where the satellite is in the earth's shadow,  

DLR